RH
26 20 16 16 16 15 14 18 22 22 23 23 23 20 21 17 15 14 14 13 13 11 11 12 12 11 11 12 12 16 21 17 18 16 15 15 15 16 15 15 15 15 15 16 14
24 18 15 16 16 15 17 20 21 23 24 22 21 20 19 16 15 14 13 13 12 12 12 12 12 12 13 13 13 16 17 15 14 14 13 14 14 14 15 16 16 14 14 14 14
19 15 15 16 17 16 19 22 24 24 22 22 21 20 19 17 14 13 13 13 13 12 12 12 12 13 13 14 14 14 13 12 12 13 13 14 15 15 16 15 14 15 15 15 13
16 15 17 18 17 19 22 24 23 21 20 19 19 18 19 19 18 13 12 12 13 14 14 14 14 14 15 15 15 14 14 14 14 13 13 15 16 16 16 15 14 13 13 16 16
20 19 19 18 20 22 24 26 25 24 23 20 17 17 16 16 15 13 13 13 14 14 15 16 17 17 17 17 15 14 14 14 15 15 16 15 17 16 17 17 17 17 15 15 16
24 21 21 21 21 22 23 24 26 25 23 22 20 18 16 16 14 14 13 14 14 15 16 16 18 19 19 18 16 16 16 17 16 17 15 15 16 16 16 17 19 18 18 15 16
34 29 26 26 28 28 27 26 25 25 25 24 23 20 18 16 15 14 14 14 16 17 17 17 19 20 20 20 18 18 19 18 16 16 16 16 16 16 17 20 22 20 21 19 16
36 35 33 32 30 29 29 27 26 25 26 25 24 23 18 17 16 15 16 16 16 17 19 19 20 21 21 21 21 19 19 19 19 19 19 20 16 18 18 22 24 26 26 23 18
39 36 34 33 32 32 32 31 31 30 29 29 27 24 24 19 17 17 17 17 17 18 20 21 21 22 21 22 24 21 20 22 24 23 23 23 20 22 21 24 24 28 27 26 24
41 39 36 34 33 32 31 30 30 28 28 29 28 25 24 22 22 21 19 18 19 20 20 22 23 23 23 24 24 24 24 24 26 28 27 27 22 20 25 26 25 26 24 25 26
40 39 38 36 35 32 32 31 30 29 29 28 27 28 27 28 28 26 24 22 20 21 22 23 25 24 26 26 27 28 28 30 29 32 30 27 26 20 18 19 22 23 22 19 21
39 38 38 38 38 36 37 34 33 30 27 27 26 26 27 28 29 29 27 25 23 22 24 26 25 26 27 28 29 29 32 32 34 33 33 32 31 26 18 19 24 26 22 18 21
42 40 38 37 35 34 34 34 34 33 29 22 23 25 27 28 29 30 29 27 26 24 28 28 27 28 29 30 31 32 35 36 38 37 36 36 32 26 22 22 26 30 27 24 23
26 32 35 37 35 37 35 34 32 30 24 20 23 27 27 27 27 28 28 31 30 30 30 30 29 28 29 30 34 35 36 40 40 40 41 43 49 36 30 26 27 29 28 30 26
8 8 10 19 25 27 28 28 27 23 46 23 31 29 28 29 30 32 34 34 35 36 35 31 31 32 33 33 35 38 40 43 42 43 48 47 55 33 30 32 32 31 34 33 28
14 13 12 9 8 11 18 24 26 27 38 24 26 27 29 30 33 37 35 31 29 32 34 33 36 36 35 34 38 42 46 46 45 49 74 46 52 44 34 34 33 40 40 35 31
16 15 15 14 13 10 8 11 22 30 15 24 28 32 32 32 35 37 35 27 27 35 34 34 32 32 30 33 38 43 48 51 64 80 74 52 61 38 36 36 35 37 43 44 43
15 15 14 15 14 14 13 11 30 14 17 24 32 35 37 35 34 33 32 25 28 39 40 40 36 24 28 31 40 43 46 47 68 70 59 56 58 37 38 39 40 43 44 45 45
10 11 11 12 13 14 15 15 12 13 17 21 22 26 27 29 36 38 35 34 34 32 37 38 41 31 34 38 44 48 49 46 51 59 76 49 45 44 44 44 45 47 49 48 44
11 11 14 20 21 16 16 16 15 14 15 17 28 30 38 34 32 33 35 34 31 25 37 42 43 37 40 45 48 52 52 55 57 74 89 67 57 50 46 46 49 51 50 49 47
25 27 38 48 53 43 29 21 17 15 16 19 20 23 29 34 31 38 45 40 40 39 38 41 50 45 52 52 49 50 54 57 58 59 88 86 56 51 51 54 56 56 54 52 49
72 64 66 75 72 67 59 54 51 45 37 28 25 23 22 25 43 49 52 50 46 48 43 38 52 59 59 61 62 61 58 55 58 65 73 81 62 59 59 59 59 60 59 56 54
76 73 66 68 72 74 75 74 74 67 57 49 47 46 50 56 66 59 58 53 51 42 50 57 65 68 59 59 64 69 67 66 63 62 68 95 69 64 66 64 65 68 68 62 62
80 87 82 75 74 84 90 90 87 91 91 87 81 73 68 72 76 75 71 73 65 61 65 74 78 78 76 64 65 69 65 69 71 89 93 91 76 68 66 69 72 76 80 96 98
73 94 96 83 77 75 85 98 100 99 95 99 98 96 97 95 91 89 86 84 83 79 81 90 97 92 85 85 90 91 87 89 90 95 99 77 89 71 77 80 87 98 99 94 95
11 33 78 100 100 100 88 86 99 94 99 96 96 100 98 99 99 98 100 99 99 95 94 96 96 100 95 92 98 99 90 97 96 95 100 98 90 66 88 94 92 99 100 100 99
16 19 26 51 83 97 100 99 98 99 99 99 99 99 100 99 98 98 99 94 98 99 100 99 99 99 97 97 100 99 78 70 65 64 67 90 48 78 83 86 88 92 99 100 99
Wind_Speed
4 5 7 8 7 6 5 4 3 3 3 3 2 2 2 1 2 3 2 4 5 5 5 5 5 4 4 4 5 6 6 5 5 4 4 5 5 7 8 10 10 9 10 10 10
3 5 7 7 7 6 4 3 3 3 4 3 2 3 2 2 2 3 4 4 5 5 5 4 4 3 2 3 4 5 6 5 5 5 5 6 7 9 9 11 9 9 10 11 9
4 5 7 8 7 5 4 3 2 2 1 1 1 2 3 2 2 2 3 3 3 4 4 4 2 1 2 3 4 5 6 5 5 5 5 6 7 10 9 8 9 10 10 10 11
5 5 7 7 5 4 3 1 1 1 0 1 0 1 3 6 3 3 3 3 3 3 2 2 2 3 3 4 5 6 6 5 5 5 6 7 9 9 8 8 7 8 10 11 11
6 4 4 4 3 3 3 2 2 2 1 2 2 3 4 3 5 4 5 4 3 3 3 3 3 4 4 5 7 7 6 5 6 7 7 8 10 10 6 8 10 10 10 11 12
5 3 2 1 2 2 3 4 3 3 3 4 4 5 6 6 5 6 6 5 6 5 3 3 4 5 6 7 7 7 7 7 7 7 10 11 11 9 8 9 12 13 13 13 13
6 4 2 1 2 3 4 4 5 4 5 5 6 7 9 7 7 7 7 7 8 6 5 5 6 6 7 8 6 8 8 9 9 8 13 13 10 11 11 11 13 15 16 17 15
7 5 3 3 3 4 5 6 7 7 7 8 9 9 9 9 8 8 8 9 9 8 7 7 7 8 8 9 10 11 9 6 8 13 11 14 16 7 10 18 19 17 19 19 17
7 6 5 5 4 5 5 6 7 8 9 10 11 12 12 11 10 10 10 10 11 11 9 9 9 10 10 11 11 8 9 12 12 11 16 16 21 7 19 21 21 23 25 23 21
8 7 6 6 6 7 8 8 9 11 12 13 13 12 13 10 12 12 12 12 11 11 11 11 11 11 11 12 8 8 13 15 16 14 21 23 25 18 20 25 27 24 24 26 22
8 8 7 7 7 8 8 9 11 12 12 13 13 14 15 17 16 15 14 13 13 12 12 12 14 13 13 13 13 14 15 19 17 20 24 24 27 23 21 26 22 18 19 18 16
9 9 9 9 9 9 10 10 11 13 16 16 18 19 20 20 19 17 15 13 13 13 13 15 16 14 13 13 15 15 17 21 21 18 24 25 33 31 23 17 20 17 11 11 17
11 11 11 10 10 11 12 12 13 16 20 22 20 19 17 16 17 16 14 14 14 14 14 16 14 16 18 16 15 17 20 21 21 21 23 29 35 24 23 12 17 13 13 17 19
14 14 14 13 13 13 13 14 15 17 16 15 13 11 11 10 10 11 10 11 13 12 14 15 17 15 14 16 16 20 20 18 18 17 9 17 13 27 3 9 10 7 18 19 21
14 15 16 16 16 15 15 15 16 15 5 6 10 10 11 11 8 9 10 12 16 17 18 17 17 17 18 18 20 20 19 19 19 21 24 24 12 4 17 8 8 15 20 20 19
18 17 17 17 17 17 17 17 16 7 7 6 9 9 12 13 13 13 14 17 20 22 24 24 22 20 19 21 19 19 18 19 21 18 5 10 13 6 5 8 19 20 19 18 19
21 21 19 19 19 18 17 16 11 7 7 7 11 13 14 16 17 19 22 23 21 13 15 18 22 25 27 26 24 22 15 5 4 0 6 5 10 25 25 29 18 18 24 27 25
24 24 24 22 21 20 18 17 11 11 14 14 13 15 18 20 26 27 27 26 22 20 21 19 15 19 16 18 18 14 18 9 6 4 5 9 12 16 18 18 20 20 22 22 24
27 25 26 25 23 22 21 22 15 15 15 18 21 24 28 24 24 24 25 24 20 23 25 10 11 13 18 18 18 16 19 22 20 16 6 12 22 26 29 24 21 19 21 21 23
30 27 25 24 23 22 24 30 26 23 22 23 25 17 22 20 20 19 20 16 14 17 17 16 20 19 25 26 25 26 18 8 9 4 6 11 18 24 24 26 21 21 21 22 26
30 29 25 23 24 24 27 32 31 30 29 29 32 32 34 34 33 31 22 21 18 17 18 23 26 28 21 25 28 27 29 24 20 17 5 5 12 9 9 17 17 19 22 26 28
31 30 23 23 26 27 30 30 31 32 30 31 34 35 37 35 33 33 34 32 23 21 26 28 29 28 31 25 25 26 32 32 24 11 17 15 41 32 28 27 28 27 27 30 32
33 34 30 24 21 23 25 27 27 29 28 30 29 29 29 30 28 28 31 30 28 29 21 23 20 17 17 21 21 30 36 40 42 39 36 13 22 16 17 19 25 26 28 31 33
35 34 36 33 27 24 24 29 29 25 26 29 34 35 36 37 36 34 34 30 26 25 28 26 29 30 31 30 18 26 31 33 32 28 27 44 48 47 46 43 43 38 34 36 40
38 35 35 28 30 35 34 34 37 38 37 32 32 30 27 32 36 39 38 33 32 33 35 39 47 42 51 51 48 49 50 48 42 44 31 53 37 57 47 44 42 41 43 44 44
30 30 33 32 29 26 32 36 36 38 42 37 36 41 43 44 46 49 44 45 49 46 39 41 48 40 53 50 46 49 54 53 55 56 53 60 67 55 54 52 52 50 47 48 49
22 25 30 35 33 31 30 30 24 29 26 24 27 30 33 34 35 38 41 47 41 44 42 38 38 32 37 43 35 32 52 50 51 49 46 48 48 42 43 40 38 37 40 45 45
Wind_Direction
195 192 184 184 182 187 190 199 223 243 261 271 259 197 164 148 157 134 149 168 168 163 159 160 158 170 182 203 215 212 237 254 247 257 261 281 288 294 297 293 287 287 278 276 274
161 172 169 170 177 176 181 206 236 252 262 259 236 198 182 178 162 153 161 163 168 168 158 165 167 170 195 224 230 230 253 260 258 266 280 293 295 291 298 293 292 273 274 276 274
130 150 156 169 169 167 187 211 239 253 263 259 231 211 203 191 196 190 167 164 171 170 167 166 165 179 226 243 260 260 265 265 276 282 285 304 306 310 308 309 300 286 270 270 267
101 132 157 160 156 174 188 195 230 197 128 26 348 273 244 241 252 233 207 193 195 193 184 187 215 237 252 280 281 273 271 278 278 286 299 308 313 311 315 318 321 288 284 284 271
81 113 136 146 167 180 190 217 248 270 315 328 327 292 270 247 241 234 232 227 232 226 218 223 243 258 262 281 278 275 281 286 293 284 296 301 307 306 328 329 323 314 289 273 270
63 70 87 124 203 221 239 250 262 271 283 287 280 272 260 254 260 246 244 246 249 243 247 260 266 266 267 281 280 290 273 275 308 274 305 303 295 279 301 315 316 309 305 288 273
52 41 15 287 264 260 265 272 278 283 283 283 280 274 263 261 257 254 255 254 256 261 264 266 270 272 276 289 277 292 279 288 291 286 302 302 293 287 295 296 303 301 295 290 275
29 23 4 325 298 285 284 286 286 282 275 277 277 274 270 258 254 257 259 256 256 260 263 266 273 278 281 284 289 295 282 278 301 300 298 303 303 290 280 306 302 298 290 281 269
15 1 346 331 315 300 300 296 289 281 278 276 275 269 270 259 249 256 256 256 252 253 259 266 272 280 280 282 284 275 279 297 311 300 298 298 298 303 293 296 293 295 286 274 262
360 349 340 330 312 302 301 295 291 286 282 280 274 264 259 253 255 259 257 256 254 254 259 264 266 271 277 278 265 279 286 293 303 302 296 297 297 297 302 299 296 291 278 269 260
342 339 338 330 319 310 305 301 300 293 283 276 267 261 262 269 264 261 260 256 255 256 257 264 266 276 278 275 274 280 282 290 305 298 292 298 294 300 302 300 296 289 287 274 230
319 318 321 323 321 315 314 312 307 297 293 284 278 271 266 264 260 256 253 256 253 253 259 268 274 274 273 271 273 271 281 292 300 299 297 297 295 303 306 293 286 292 278 252 239
307 306 307 309 309 309 312 309 306 305 302 290 277 267 262 259 254 248 248 252 254 251 267 267 272 275 273 269 271 274 284 295 292 296 291 301 301 308 315 292 275 274 274 267 250
301 300 301 302 302 304 305 305 307 310 303 282 263 248 245 240 241 233 229 252 256 263 267 274 272 266 261 269 274 282 290 291 290 296 290 299 292 297 289 301 276 252 288 275 251
304 303 300 298 297 298 299 301 307 314 331 274 240 245 233 225 234 230 248 259 271 273 271 267 270 272 269 276 279 279 280 286 287 289 290 288 250 279 300 256 234 286 273 266 249
299 300 300 300 298 296 297 299 305 296 256 259 250 243 232 231 240 257 276 280 282 275 270 271 269 266 268 277 272 271 276 287 285 278 274 268 216 260 270 256 272 288 273 256 245
296 296 296 295 294 294 293 293 296 226 273 265 259 252 245 246 257 271 279 281 274 268 267 271 270 271 272 267 262 262 261 297 301 221 232 241 233 266 280 279 289 280 273 257 254
293 293 292 290 289 287 285 280 243 254 251 270 277 270 255 265 276 278 276 274 263 247 267 280 276 267 260 248 251 237 232 213 246 227 262 278 247 277 275 286 282 274 274 271 256
291 289 288 287 286 282 276 261 253 267 271 272 275 279 275 272 265 271 274 268 254 260 261 258 252 255 256 256 242 236 238 254 249 277 297 259 264 268 274 280 281 276 270 260 253
292 291 288 287 284 279 271 262 261 267 270 270 273 273 271 271 271 272 272 272 261 258 245 259 277 271 258 252 243 236 251 230 208 248 245 265 275 265 272 274 273 275 259 252 250
297 297 297 291 284 276 267 270 276 275 274 275 275 271 271 274 273 268 261 265 262 252 255 259 258 271 255 242 247 248 250 243 246 240 213 266 265 279 258 286 278 271 259 254 248
299 300 295 288 282 275 274 279 282 280 277 276 275 274 274 276 270 266 263 262 262 270 272 266 257 260 268 269 262 252 253 252 234 241 232 252 265 265 266 273 278 274 264 253 245
293 294 296 294 286 282 277 275 276 276 275 276 275 276 279 274 270 271 269 272 271 273 257 252 245 273 277 270 258 249 250 250 252 254 249 240 255 263 275 276 276 277 265 255 252
293 294 291 291 290 283 286 283 278 277 279 276 277 275 272 271 270 267 270 279 279 259 244 249 260 256 256 262 267 269 268 267 267 248 249 241 257 261 274 275 277 276 267 265 267
289 288 286 277 276 282 281 274 277 281 283 284 280 279 274 270 270 265 273 273 259 254 255 261 266 262 263 263 264 266 268 265 258 257 245 264 257 273 275 278 276 272 271 273 273
282 276 274 273 271 266 278 273 281 292 281 284 281 274 275 281 283 283 276 269 274 274 267 264 261 262 262 268 268 267 267 267 265 266 257 267 272 280 274 268 268 267 267 269 270
295 284 280 279 276 275 279 275 270 271 268 267 259 271 274 281 262 261 266 271 266 266 267 261 252 247 262 277 272 256 263 269 267 269 266 259 279 279 274 273 270 272 269 264 258